2016-06-02 00:02:40 r, 21.09m,0000000001Hz,0001466634c,0000003.183s, 020.9C,00002191
2016-06-02 00:12:40 r, 21.11m,0000000000Hz,0001495747c,0000003.246s, 020.6C,00002191
2016-06-02 00:22:40 r, 21.12m,0000000000Hz,0001517393c,0000003.293s, 020.3C,00002191
2016-06-02 00:32:41 r, 21.13m,0000000000Hz,0001524593c,0000003.309s, 020.3C,00002191
2016-06-02 00:42:40 r, 21.14m,0000000000Hz,0001530999c,0000003.322s, 019.9C,00002191
2016-06-02 00:52:40 r, 21.15m,0000000000Hz,0001547864c,0000003.359s, 019.9C,00002191
2016-06-02 01:02:40 r, 21.14m,0000000000Hz,0001529394c,0000003.319s, 019.6C,00002191
2016-06-02 01:12:40 r, 21.15m,0000000001Hz,0001546418c,0000003.356s, 019.3C,00002191
2016-06-02 01:22:40 r, 21.14m,0000000000Hz,0001529414c,0000003.319s, 019.3C,00002191
2016-06-02 01:32:41 r, 21.12m,0000000000Hz,0001509418c,0000003.276s, 019.0C,00002191
2016-06-02 01:42:40 r, 21.10m,0000000000Hz,0001482583c,0000003.217s, 019.0C,00002191
2016-06-02 01:52:40 r, 21.08m,0000000001Hz,0001461799c,0000003.172s, 018.6C,00002191
2016-06-02 02:02:40 r, 21.06m,0000000000Hz,0001439097c,0000003.123s, 018.6C,00002191
2016-06-02 02:12:40 r, 21.06m,0000000001Hz,0001431729c,0000003.107s, 018.6C,00002191
2016-06-02 02:22:40 r, 21.04m,0000000000Hz,0001400917c,0000003.040s, 018.6C,00002191
2016-06-02 02:32:40 r, 21.00m,0000000000Hz,0001361112c,0000002.954s, 018.3C,00002191
2016-06-02 02:42:40 r, 20.97m,0000000000Hz,0001321822c,0000002.869s, 018.3C,00002191
2016-06-02 02:52:40 r, 20.92m,0000000000Hz,0001260859c,0000002.736s, 018.0C,00002191
2016-06-02 03:02:40 r, 20.83m,0000000001Hz,0001164631c,0000002.527s, 018.0C,00002191
2016-06-02 03:12:40 r, 20.70m,0000000001Hz,0001025886c,0000002.226s, 018.0C,00002191
2016-06-02 03:22:40 r, 20.45m,0000000001Hz,0000827229c,0000001.795s, 017.7C,00002191
2016-06-02 03:32:40 r, 20.08m,0000000000Hz,0000587616c,0000001.275s, 017.7C,00002191
2016-06-02 03:42:40 r, 19.54m,0000000002Hz,0000358882c,0000000.779s, 017.7C,00002191
2016-06-02 03:52:40 r, 18.86m,0000000002Hz,0000191848c,0000000.416s, 017.7C,00002191
2016-06-02 04:02:40 r, 18.06m,0000000005Hz,0000092093c,0000000.200s, 017.7C,00002191
2016-06-02 04:12:40 r, 17.16m,0000000012Hz,0000039940c,0000000.087s, 017.4C,00002191
2016-06-02 04:22:40 r, 16.09m,0000000030Hz,0000014963c,0000000.032s, 017.4C,00002191
2016-06-02 04:32:40 r, 14.71m,0000000108Hz,0000004210c,0000000.009s, 017.4C,00002191
2016-06-02 04:42:40 r, 13.18m,0000000453Hz,0000000000c,0000000.000s, 017.0C,00002191
2016-06-02 04:52:40 r, 11.65m,0000001847Hz,0000000000c,0000000.000s, 017.0C,00002191
2016-06-02 05:02:41 r, 10.13m,0000007509Hz,0000000000c,0000000.000s, 017.0C,00002191
2016-06-02 05:12:40 r, 08.86m,0000024296Hz,0000000000c,0000000.000s, 017.4C,00002191
2016-06-02 05:22:40 r, 07.87m,0000059916Hz,0000000000c,0000000.000s, 017.7C,00002191
2016-06-02 05:32:40 r, 06.91m,0000146021Hz,0000000000c,0000000.000s, 017.7C,00002191
2016-06-02 05:42:40 r, 06.35m,0000243972Hz,0000000000c,0000000.000s, 018.3C,00002191
2016-06-02 05:52:40 r, 05.92m,0000363042Hz,0000000000c,0000000.000s, 018.6C,00002191
2016-06-02 06:02:41 r, 05.88m,0000375000Hz,0000000000c,0000000.000s, 019.0C,00002191
2016-06-02 06:12:40 r, 00.00m,0000573784Hz,0000000000c,0000000.000s, 019.0C,00002191
2016-06-02 06:22:40 r, 00.00m,0000596288Hz,0000000000c,0000000.000s, 019.6C,00002191
2016-06-02 06:32:41 r, 00.00m,0000596296Hz,0000000000c,0000000.000s, 020.3C,00002191
2016-06-02 06:42:40 r, 00.00m,0000596241Hz,0000000000c,0000000.000s, 020.9C,00002191
2016-06-02 06:52:40 r, 00.00m,0000596125Hz,0000000000c,0000000.000s, 021.5C,00002191
2016-06-02 07:02:41 r, 00.00m,0000596048Hz,0000000000c,0000000.000s, 022.2C,00002191
2016-06-02 07:12:40 r, 00.00m,0000596023Hz,0000000000c,0000000.000s, 022.8C,00002191
2016-06-02 07:22:40 r, 00.00m,0000595957Hz,0000000000c,0000000.000s, 023.5C,00002191
2016-06-02 07:32:40 r, 00.00m,0000595813Hz,0000000000c,0000000.000s, 024.4C,00002191
2016-06-02 07:42:40 r, 00.00m,0000595933Hz,0000000000c,0000000.000s, 025.1C,00002191
2016-06-02 07:52:40 r, 00.00m,0000595718Hz,0000000000c,0000000.000s, 025.4C,00002191
2016-06-02 08:02:42 r, 00.00m,0000595596Hz,0000000000c,0000000.000s, 027.3C,00002191
2016-06-02 08:12:40 r, 00.00m,0000595402Hz,0000000000c,0000000.000s, 029.0C,00002191
2016-06-02 08:22:40 r, 00.00m,0000595208Hz,0000000000c,0000000.000s, 030.6C,00002191
2016-06-02 08:32:40 r, 00.00m,0000595070Hz,0000000000c,0000000.000s, 032.2C,00002191
2016-06-02 08:42:40 r, 00.00m,0000594940Hz,0000000000c,0000000.000s, 033.5C,00002191
2016-06-02 08:52:40 r, 00.00m,0000594720Hz,0000000000c,0000000.000s, 034.8C,00002191
2016-06-02 09:02:40 r, 00.00m,0000594687Hz,0000000000c,0000000.000s, 035.4C,00002191
2016-06-02 09:12:40 r, 00.00m,0000594526Hz,0000000000c,0000000.000s, 036.4C,00002191
2016-06-02 09:22:40 r, 00.00m,0000594306Hz,0000000000c,0000000.000s, 037.0C,00002191
2016-06-02 09:32:40 r, 00.00m,0000594180Hz,0000000000c,0000000.000s, 038.6C,00002191
2016-06-02 09:42:40 r, 00.00m,0000593914Hz,0000000000c,0000000.000s, 039.9C,00002191
2016-06-02 09:52:40 r, 00.00m,0000593849Hz,0000000000c,0000000.000s, 040.2C,00002191
2016-06-02 10:02:40 r, 00.00m,0000593980Hz,0000000000c,0000000.000s, 039.6C,00002191
2016-06-02 10:12:40 r, 00.00m,0000593964Hz,0000000000c,0000000.000s, 039.6C,00002191
2016-06-02 10:22:40 r, 00.00m,0000593857Hz,0000000000c,0000000.000s, 040.6C,00002191
2016-06-02 10:32:40 r, 00.00m,0000593785Hz,0000000000c,0000000.000s, 041.2C,00002191
2016-06-02 10:42:40 r, 00.00m,0000593792Hz,0000000000c,0000000.000s, 041.2C,00002191
2016-06-02 10:52:40 r, 00.00m,0000593708Hz,0000000000c,0000000.000s, 041.2C,00002191
2016-06-02 11:02:40 r, 00.00m,0000593534Hz,0000000000c,0000000.000s, 042.2C,00002191
2016-06-02 11:12:40 r, 00.00m,0000593518Hz,0000000000c,0000000.000s, 042.5C,00002191
2016-06-02 11:22:40 r, 00.00m,0000593425Hz,0000000000c,0000000.000s, 043.1C,00002191
2016-06-02 11:32:40 r, 00.00m,0000593221Hz,0000000000c,0000000.000s, 044.1C,00002191
2016-06-02 11:42:40 r, 00.00m,0000593772Hz,0000000000c,0000000.000s, 041.9C,00002191
2016-06-02 11:52:42 r, 00.00m,0000593636Hz,0000000000c,0000000.000s, 040.9C,00002191
2016-06-02 12:02:40 r, 00.00m,0000593340Hz,0000000000c,0000000.000s, 042.8C,00002191
2016-06-02 12:12:40 r, 00.00m,0000593471Hz,0000000000c,0000000.000s, 041.9C,00002191
2016-06-02 12:22:40 r, 00.00m,0000593142Hz,0000000000c,0000000.000s, 043.8C,00002191
2016-06-02 12:32:40 r, 00.00m,0000592625Hz,0000000000c,0000000.000s, 046.7C,00002191
2016-06-02 12:42:41 r, 00.00m,0000592289Hz,0000000000c,0000000.000s, 048.6C,00002191
2016-06-02 12:52:41 r, 00.00m,0000592160Hz,0000000000c,0000000.000s, 049.9C,00002191
2016-06-02 13:02:41 r, 00.00m,0000592205Hz,0000000000c,0000000.000s, 050.2C,00002191
2016-06-02 13:12:41 r, 00.00m,0000592212Hz,0000000000c,0000000.000s, 049.3C,00002191
2016-06-02 13:22:40 r, 00.00m,0000592647Hz,0000000000c,0000000.000s, 047.3C,00002191
2016-06-02 13:32:40 r, 00.00m,0000592908Hz,0000000000c,0000000.000s, 044.1C,00002191
2016-06-02 13:42:41 r, 00.00m,0000592477Hz,0000000000c,0000000.000s, 046.7C,00002191
2016-06-02 13:52:40 r, 00.00m,0000591852Hz,0000000000c,0000000.000s, 049.9C,00002191
2016-06-02 14:02:40 r, 00.00m,0000591729Hz,0000000000c,0000000.000s, 050.9C,00002191
2016-06-02 14:12:43 r, 00.00m,0000591789Hz,0000000000c,0000000.000s, 051.2C,00002191
2016-06-02 14:22:41 r, 00.00m,0000592559Hz,0000000000c,0000000.000s, 047.7C,00002191
2016-06-02 14:32:40 r, 00.00m,0000592782Hz,0000000000c,0000000.000s, 045.4C,00002191
2016-06-02 14:42:41 r, 00.00m,0000592511Hz,0000000000c,0000000.000s, 046.4C,00002191
2016-06-02 14:52:41 r, 00.00m,0000592172Hz,0000000000c,0000000.000s, 048.9C,00002191
2016-06-02 15:02:40 r, 00.00m,0000592157Hz,0000000000c,0000000.000s, 049.3C,00002191
2016-06-02 15:12:40 r, 00.00m,0000592139Hz,0000000000c,0000000.000s, 049.6C,00002191
2016-06-02 15:22:40 r, 00.00m,0000592033Hz,0000000000c,0000000.000s, 050.2C,00002191
2016-06-02 15:32:40 r, 00.00m,0000592224Hz,0000000000c,0000000.000s, 049.3C,00002191
2016-06-02 15:42:43 r, 00.00m,0000592322Hz,0000000000c,0000000.000s, 048.9C,00002191
2016-06-02 15:52:40 r, 00.00m,0000592344Hz,0000000000c,0000000.000s, 048.6C,00002191
2016-06-02 16:02:41 r, 00.00m,0000592348Hz,0000000000c,0000000.000s, 048.6C,00002191
2016-06-02 16:12:40 r, 00.00m,0000592432Hz,0000000000c,0000000.000s, 048.0C,00002191
2016-06-02 16:22:41 r, 00.00m,0000592457Hz,0000000000c,0000000.000s, 048.0C,00002191
2016-06-02 16:32:40 r, 00.00m,0000592499Hz,0000000000c,0000000.000s, 047.7C,00002191
2016-06-02 16:42:41 r, 00.00m,0000592524Hz,0000000000c,0000000.000s, 047.3C,00002191
2016-06-02 16:52:40 r, 00.00m,0000592570Hz,0000000000c,0000000.000s, 047.3C,00002191
2016-06-02 17:02:40 r, 00.00m,0000592650Hz,0000000000c,0000000.000s, 047.0C,00002191
2016-06-02 17:12:42 r, 00.00m,0000592629Hz,0000000000c,0000000.000s, 047.0C,00002191
2016-06-02 17:22:41 r, 00.00m,0000592629Hz,0000000000c,0000000.000s, 046.7C,00002191
2016-06-02 17:32:40 r, 00.00m,0000592827Hz,0000000000c,0000000.000s, 046.0C,00002191
2016-06-02 17:42:41 r, 00.00m,0000592905Hz,0000000000c,0000000.000s, 045.4C,00002191
2016-06-02 17:52:40 r, 00.00m,0000593094Hz,0000000000c,0000000.000s, 044.4C,00002191
2016-06-02 18:02:40 r, 00.00m,0000593238Hz,0000000000c,0000000.000s, 043.5C,00002191
2016-06-02 18:12:41 r, 00.00m,0000593280Hz,0000000000c,0000000.000s, 042.8C,00002191
2016-06-02 18:22:41 r, 00.00m,0000593455Hz,0000000000c,0000000.000s, 041.9C,00002191
2016-06-02 18:32:41 r, 00.00m,0000593524Hz,0000000000c,0000000.000s, 041.5C,00002191
2016-06-02 18:42:41 r, 00.00m,0000593696Hz,0000000000c,0000000.000s, 040.6C,00002191
2016-06-02 18:52:40 r, 00.00m,0000593839Hz,0000000000c,0000000.000s, 039.3C,00002191
2016-06-02 19:02:41 r, 00.00m,0000593957Hz,0000000000c,0000000.000s, 038.6C,00002191
2016-06-02 19:12:41 r, 00.00m,0000594065Hz,0000000000c,0000000.000s, 037.7C,00002191
2016-06-02 19:22:40 r, 00.00m,0000594125Hz,0000000000c,0000000.000s, 036.7C,00002191
2016-06-02 19:32:41 r, 00.00m,0000594186Hz,0000000000c,0000000.000s, 036.7C,00002191
2016-06-02 19:42:41 r, 00.00m,0000594306Hz,0000000000c,0000000.000s, 036.0C,00002191
2016-06-02 19:52:41 r, 00.00m,0000594399Hz,0000000000c,0000000.000s, 035.4C,00002191
2016-06-02 20:02:40 r, 00.00m,0000594498Hz,0000000000c,0000000.000s, 034.8C,00002191
2016-06-02 20:12:41 r, 00.00m,0000594579Hz,0000000000c,0000000.000s, 034.1C,00002191
2016-06-02 20:22:41 r, 00.00m,0000594715Hz,0000000000c,0000000.000s, 033.1C,00002191
2016-06-02 20:32:40 r, 00.00m,0000530027Hz,0000000000c,0000000.000s, 032.2C,00002191
2016-06-02 20:42:41 r, 00.00m,0000461350Hz,0000000000c,0000000.000s, 031.5C,00002191
2016-06-02 20:52:40 r, 05.96m,0000351308Hz,0000000000c,0000000.000s, 030.9C,00002191
2016-06-02 21:02:41 r, 06.20m,0000282262Hz,0000000000c,0000000.000s, 030.2C,00002191
2016-06-02 21:12:41 r, 06.55m,0000203424Hz,0000000000c,0000000.000s, 029.3C,00002191
2016-06-02 21:22:40 r, 07.36m,0000095928Hz,0000000000c,0000000.000s, 028.6C,00002191
2016-06-02 21:32:40 r, 08.21m,0000044137Hz,0000000000c,0000000.000s, 028.0C,00002191
2016-06-02 21:42:41 r, 09.22m,0000017391Hz,0000000000c,0000000.000s, 027.7C,00002191
2016-06-02 21:52:40 r, 10.57m,0000005045Hz,0000000000c,0000000.000s, 027.3C,00002191
2016-06-02 22:02:40 r, 11.98m,0000001363Hz,0000000000c,0000000.000s, 027.0C,00002191
2016-06-02 22:12:41 r, 13.48m,0000000343Hz,0000000000c,0000000.000s, 026.7C,00002191
2016-06-02 22:22:41 r, 15.02m,0000000083Hz,0000005579c,0000000.012s, 026.7C,00002191
2016-06-02 22:32:41 r, 16.16m,0000000029Hz,0000015929c,0000000.035s, 026.7C,00002191
2016-06-02 22:42:41 r, 17.31m,0000000010Hz,0000046153c,0000000.100s, 026.4C,00002191
2016-06-02 22:52:40 r, 18.17m,0000000005Hz,0000101605c,0000000.220s, 026.4C,00002191
2016-06-02 23:02:40 r, 18.96m,0000000002Hz,0000211258c,0000000.458s, 026.4C,00002191
2016-06-02 23:12:40 r, 19.61m,0000000001Hz,0000380069c,0000000.825s, 026.1C,00002191
2016-06-02 23:22:41 r, 19.81m,0000000001Hz,0000457914c,0000000.994s, 026.1C,00002191
2016-06-02 23:32:40 r, 20.09m,0000000000Hz,0000593069c,0000001.287s, 026.1C,00002191
2016-06-02 23:42:40 r, 20.48m,0000000000Hz,0000847729c,0000001.840s, 026.1C,00002191
2016-06-02 23:52:41 r, 20.85m,0000000000Hz,0001194561c,0000002.592s, 026.1C,00002191
